This demonstration page uses our WeatherBlox Daily Observations layout. Learn more.

Left ArrowRight Arrow

40.92945, -100.16068

Hourly Observations for December 2, 2020

Temp ( °F °C ) Dew Point ( °F °C ) Humidity (%) Winds ( mph kmh ) Pressure ( in mb ) Visibility ( mi km ) Precip ( " mm )
12:15 am 00:15 Cloudy 36 2.4 27 -2.9 68 68 N 18 30 30.27 1025 10 16.0934 0 0
12:35 am 00:35 Cloudy 37 2.8 27 -2.8 67 67 N 24 39 30.28 1025 10 16.0934 0 0
12:55 am 00:55 Cloudy 37 2.9 27 -2.7 67 67 N 20 31 30.27 1025 10 16.0934 0 0
1:15 am 01:15 Cloudy 37 2.8 27 -2.7 67 67 N 22 35 30.27 1025 10 16.0934 0 0
1:35 am 01:35 Cloudy 37 2.8 27 -2.8 67 67 N 23 37 30.28 1025 10 16.0934 0 0
1:55 am 01:55 Cloudy 37 2.8 27 -2.8 67 67 N 22 35 30.28 1025 10 16.0934 0 0
2:15 am 02:15 Cloudy 37 2.8 27 -2.8 67 67 N 20 31 30.28 1025 10 16.0934 0 0
2:35 am 02:35 Cloudy 37 2.6 27 -3 67 67 N 22 35 30.29 1026 10 16.0934 0 0
2:55 am 02:55 Cloudy 37 2.5 27 -2.8 68 68 N 20 31 30.3 1026 10 16.0934 0 0
3:15 am 03:15 Cloudy 36 2.3 27 -3 68 68 N 18 30 30.31 1027 10 16.0934 0 0
3:35 am 03:35 Cloudy 36 2.2 27 -3 69 69 N 17 28 30.32 1027 10 16.0934 0 0
3:55 am 03:55 Cloudy 36 2.2 27 -3 69 69 N 18 30 30.32 1027 10 16.0934 0 0
4:15 am 04:15 Cloudy 36 2.2 27 -3 69 69 N 21 33 30.33 1027 10 16.0934 0 0
4:35 am 04:35 Cloudy 36 2.1 27 -2.9 70 70 N 21 33 30.34 1027 10 16.0934 0 0
4:55 am 04:55 Cloudy 36 2.1 27 -2.9 70 70 N 20 31 30.34 1027 10 16.0934 0 0
5:15 am 05:15 Cloudy 36 2 27 -2.8 71 71 N 17 28 30.35 1028 10 16.0934 0 0
5:35 am 05:35 Cloudy 36 2 27 -2.8 71 71 N 17 28 30.35 1028 10 16.0934 0 0
5:55 am 05:55 Cloudy 36 2 27 -2.7 71 71 N 16 26 30.36 1028 10 16.0934 0 0
6:15 am 06:15 Cloudy 36 2 27 -2.6 72 72 N 18 30 30.36 1028 10 16.0934 0 0
6:35 am 06:35 Cloudy 36 2 28 -2.5 72 72 N 18 30 30.36 1028 10 16.0934 0 0
6:55 am 06:55 Cloudy 36 2 28 -2.5 72 72 N 16 26 30.37 1028 10 16.0934 0 0
7:15 am 07:15 Cloudy 35 1.8 28 -2.5 73 73 N 20 31 30.37 1028 10 16.0934 0 0
7:35 am 07:35 Cloudy 35 1.8 27 -2.6 73 73 N 20 31 30.39 1029 10 16.0934 0 0
7:55 am 07:55 Cloudy 35 1.7 27 -2.7 73 73 N 16 26 30.4 1029 10 16.0934 0 0
8:15 am 08:15 Cloudy 35 1.8 27 -2.8 72 72 N 16 26 30.41 1030 10 16.0934 0 0
8:35 am 08:35 Cloudy 35 1.8 27 -2.7 72 72 N 22 35 30.41 1030 10 16.0934 0 0
8:55 am 08:55 Cloudy 36 2 27 -2.6 72 72 N 21 33 30.42 1030 10 16.0934 0 0
9:15 am 09:15 Cloudy 36 2.1 27 -2.6 71 71 N 20 31 30.43 1030 10 16.0934 0 0
9:35 am 09:35 Cloudy 36 2 27 -2.7 71 71 NNE 22 35 30.44 1031 10 16.0934 0 0
9:55 am 09:55 Cloudy 36 2 27 -3 70 70 NNE 22 35 30.45 1031 10 16.0934 0 0
10:15 am 10:15 Cloudy 36 2 26 -3.1 69 69 NNE 22 35 30.46 1031 10 16.0934 0 0
10:35 am 10:35 Cloudy 36 2 27 -3 70 70 NNE 18 30 30.46 1031 10 16.0934 0 0
10:55 am 10:55 Cloudy 37 2.6 26 -3.2 66 66 N 23 37 30.45 1031 10 16.0934 0 0
11:15 am 11:15 Cloudy 37 3 27 -3 65 65 N 23 37 30.45 1031 10 16.0934 0 0
11:35 am 11:35 Cloudy 38 3.3 27 -3 64 64 N 21 33 30.45 1031 10 16.0934 0 0
11:55 am 11:55 Cloudy 39 3.7 26 -3.3 61 61 N 23 37 30.43 1031 10 16.0934 0 0
12:15 pm 12:15 Mostly Cloudy 38 3.3 26 -3.4 62 62 N 18 30 30.44 1031 10 16.0934 0 0
12:35 pm 12:35 Mostly Cloudy 37 3 26 -3.5 63 63 N 21 33 30.44 1031 10 16.0934 0 0
12:55 pm 12:55 Cloudy 38 3.5 26 -3.2 62 62 N 20 31 30.43 1031 10 16.0934 0 0
1:15 pm 13:15 Cloudy 38 3.6 26 -3.2 61 61 NNE 20 31 30.43 1031 10 16.0934 0 0
1:35 pm 13:35 Cloudy 38 3.2 26 -3.6 61 61 N 17 28 30.44 1031 10 16.0934 0 0
1:55 pm 13:55 Mostly Cloudy 37 2.7 26 -3.5 64 64 N 15 24 30.44 1031 10 16.0934 0 0
2:15 pm 14:15 Mostly Cloudy 37 2.5 25 -4.1 62 62 N 15 24 30.44 1031 10 16.0934 0 0
2:35 pm 14:35 Partly Cloudy 37 2.5 24 -4.6 60 60 N 18 30 30.43 1031 10 16.0934 0 0
2:55 pm 14:55 Partly Cloudy 37 2.6 24 -4.6 59 59 N 17 28 30.43 1031 10 16.0934 0 0
3:15 pm 15:15 Sunny 36 2.3 24 -4.6 61 61 N 14 22 30.44 1031 10 16.0934 0 0
3:35 pm 15:35 Sunny 36 2.2 24 -4.5 62 62 N 17 28 30.45 1031 10 16.0934 0 0
3:55 pm 15:55 Sunny 36 2 24 -4.5 62 62 N 18 30 30.44 1031 10 16.0934 0 0
4:15 pm 16:15 Sunny 35 1.5 24 -4.5 65 65 N 18 30 30.45 1031 10 16.0934 0 0
4:35 pm 16:35 Sunny 34 1 24 -4.5 67 67 N 17 28 30.46 1031 10 16.0934 0 0
4:55 pm 16:55 Partly Cloudy 33 0.7 24 -4.5 69 69 N 13 20 30.47 1032 10 16.0934 0 0
5:15 pm 17:15 Clear 32 0.1 24 -4.7 70 70 N 16 26 30.48 1032 10 16.0934 0 0
5:35 pm 17:35 Clear 32 0 23 -4.8 70 70 N 13 20 30.48 1032 10 16.0934 0 0
5:55 pm 17:55 Partly Cloudy 31 -0.3 23 -4.8 72 72 N 8 13 30.49 1033 10 16.0934 0 0
6:15 pm 18:15 Mostly Cloudy 31 -0.5 24 -4.6 74 74 N 8 13 30.49 1033 10 16.0934 0 0
6:35 pm 18:35 Cloudy 32 -0.2 24 -4.5 73 73 N 7 11 30.49 1033 10 16.0934 0 0
6:55 pm 18:55 Cloudy 32 0 25 -4.1 74 74 N 7 11 30.5 1033 10 16.0934 0 0
7:15 pm 19:15 Cloudy 32 0.2 25 -4 74 74 N 10 17 30.51 1033 10 16.0934 0 0
7:35 pm 19:35 Cloudy 32 0.2 25 -4 74 74 N 12 19 30.51 1033 10 16.0934 0 0
7:55 pm 19:55 Cloudy 32 0.1 25 -4 74 74 NNE 8 13 30.51 1033 10 16.0934 0 0
8:15 pm 20:15 Cloudy 32 0.2 25 -3.7 75 75 N 10 17 30.51 1033 10 16.0934 0 0
8:35 pm 20:35 Cloudy 33 0.3 26 -3.5 76 76 N 9 15 30.51 1033 10 16.0934 0 0
8:55 pm 20:55 Cloudy 33 0.3 26 -3.5 76 76 N 10 17 30.5 1033 10 16.0934 0 0
9:15 pm 21:15 Cloudy 33 0.3 26 -3.5 76 76 N 10 17 30.5 1033 10 16.0934 0 0
9:35 pm 21:35 Cloudy 33 0.5 26 -3.5 75 75 N 14 22 30.49 1033 10 16.0934 0 0
9:55 pm 21:55 Cloudy 33 0.5 26 -3.5 75 75 N 13 20 30.49 1033 10 16.0934 0 0
10:15 pm 22:15 Cloudy 33 0.5 26 -3.4 75 75 N 7 11 30.49 1033 10 16.0934 0 0
10:35 pm 22:35 Cloudy 33 0.5 26 -3.2 77 77 N 8 13 30.49 1033 10 16.0934 0 0
10:55 pm 22:55 Cloudy 33 0.5 27 -3 78 78 N 9 15 30.48 1032 10 16.0934 0 0
11:15 pm 23:15 Cloudy 33 0.5 26 -3.2 77 77 N 16 26 30.48 1032 10 16.0934 0 0
11:35 pm 23:35 Cloudy 33 0.5 27 -3 78 78 N 10 17 30.49 1033 10 16.0934 0 0
11:55 pm 23:55 Cloudy 33 0.3 26 -3.2 78 78 N 12 19 30.49 1032 10 16.0934 0 0

Powered by AerisWeather